STARLINK-3136 (49443 NORAD) Tracking and Keplerian Element Data

This shows tracking and keplerian element data for the satellite.

Feedback or suggestion? Click here.




ElementValue
Catalog49443
NameSTARLINK-3136
Epoch Orbit370
Epoch Day15.91668981
Epoch Year2022
RAAN179.3374
Inclination53.2151
Eccentricity0.0003002
Argument of Perigee10.5806
Mean Anonmoly204.9764
Mean Motion15.73211301
Decay Rate-0.00011298
L11 49443U 21104AM 22015.91668981 -.00011298 00000+0 -76111-4 0 9992
L22 49443 53.2151 179.3374 0003002 10.5806 204.9764 15.73211301 3708

Live tracking and technical data element details for STARLINK-3136 (NORAD 49443). STARLINK-3136 can be tracked NOW for your location showing map with azimuth and elevation plus other details from your city location.

Track the satellite on the map from your city or location and see movement details for azimuth, elevation, latitude, longitude, range, height, and movement on the map or in text.







IsCatalogInMostPopularTable: catalog: 49443, numindb: 7
Update: records affected: 1



GetName: 49443 STARLINK-3136

Hit Count: updated at: Thu, 20 Jan 2022 16:07:50 GMT